Change the Weather History Date:

Saturday, October 29, 2011

  Actual Average Record
Temperature  
Mean Temperature 76 °F -  
Max Temperature 82 °F 85 °F 91 °F (2004)
Min Temperature 69 °F 71 °F 60 °F (2000)
Cooling Degree Days 10    
Growing Degree Days 26 (Base 50)    
Moisture  
Dew Point 71 °F    
Average Humidity 94    
Maximum Humidity 100    
Minimum Humidity 70    
Precipitation  
Precipitation 5.40 in - - ()
Sea Level Pressure  
Sea Level Pressure 29.89 in    
Wind  
Wind Speed 6 mph ()    
Max Wind Speed 14 mph    
Max Gust Speed 26 mph    
Visibility 5.2 miles    
Events Fog , Rain    
Averages and records for this station are not official NWS values.
T = Trace of Precipitation, MM = Missing Value Source: Averaged Metar Reports

Daily Weather History Graph

Daily Weather History Graph

Search for Another Location

Airport or City:

Trip Planner

Search our weather history database for the weather conditions in past years. The results will help you decide how hot, cold, wet, or windy it might be!

Date:

Astronomy

Oct. 29, 2011 Rise Set
Actual Time 6:48 AM CDT 6:13 PM CDT
Civil Twilight 6:25 AM CDT 6:36 PM CDT
Nautical Twilight 5:59 AM CDT 7:02 PM CDT
Astronomical Twilight 5:33 AM CDT 7:28 PM CDT
Moon 9:47 AM CDT (10/29) 8:59 PM CDT (10/29)
Length of Visible Light 12h 10m
Length of Day
11h 24m
Waxing Crescent, 12% of the Moon is Illuminated
Oct 29
Waxing Crescent
Nov 2
First Quarter
Nov 10
Full
Nov 18
Last Quarter
Nov 25
New

Hourly Weather History & Observations

Time (CDT) Temp. Heat Index Dew Point Humidity Pressure Visibility Wind Dir Wind Speed Gust Speed Precip Events Conditions
12:46 AM 71.6 °F - 71.6 °F 100% 29.90 in 6.0 mi Calm Calm - N/A   Mostly Cloudy
1:51 AM 71.6 °F - 71.6 °F 100% 29.88 in 0.1 mi West 4.6 mph - N/A Fog Fog
2:49 AM 71.6 °F - 71.6 °F 100% 29.86 in 1.5 mi West 4.6 mph - N/A   Mist
3:41 AM 69.8 °F - 69.8 °F 100% 29.87 in 7.0 mi West 4.6 mph - N/A   Mostly Cloudy
4:47 AM 69.8 °F - 69.8 °F 100% 29.85 in 7.0 mi West 4.6 mph - N/A   Clear
5:46 AM 69.8 °F - 69.8 °F 100% 29.86 in 7.0 mi WNW 3.5 mph - N/A   Clear
6:54 AM 69.8 °F - 69.8 °F 100% 29.88 in 3.0 mi West 5.8 mph - N/A   Scattered Clouds
7:42 AM 69.8 °F - 69.8 °F 100% 29.88 in 3.0 mi WNW 5.8 mph - N/A   Mostly Cloudy
8:16 AM 71.6 °F - 71.6 °F 100% 29.89 in 5.0 mi WNW 5.8 mph - N/A   Mostly Cloudy
8:40 AM 71.6 °F - 71.6 °F 100% 29.90 in 5.0 mi West 4.6 mph - N/A   Mostly Cloudy
9:47 AM 75.2 °F - 75.2 °F 100% 29.92 in 5.0 mi NNW 9.2 mph - N/A   Mostly Cloudy
10:40 AM 78.8 °F - 73.4 °F 83% 29.93 in 6.0 mi North 11.5 mph - N/A   Mostly Cloudy
11:41 AM 80.6 °F 84.6 °F 71.6 °F 74% 29.93 in 6.0 mi NW 10.4 mph - N/A   Mostly Cloudy
12:41 PM 82.4 °F 87.2 °F 71.6 °F 70% 29.91 in 6.0 mi NNW 11.5 mph - N/A   Mostly Cloudy
1:40 PM 75.2 °F - 73.4 °F 94% 29.88 in 6.0 mi NW 6.9 mph - N/A   Mostly Cloudy
2:40 PM 82.4 °F 88.2 °F 73.4 °F 74% 29.86 in 6.0 mi NNW 10.4 mph 21.9 mph N/A   Mostly Cloudy
3:08 PM 77.0 °F - 69.8 °F 78% 29.87 in 2.0 mi NNW 13.8 mph 26.5 mph N/A Rain Rain
3:40 PM 75.2 °F - 73.4 °F 94% 29.89 in 6.0 mi NW 10.4 mph - N/A   Mostly Cloudy
4:44 PM 75.2 °F - 71.6 °F 89% 29.87 in 6.0 mi NNW 13.8 mph - N/A   Mostly Cloudy
5:45 PM 73.4 °F - 71.6 °F 94% 29.88 in 6.0 mi NW 12.7 mph - N/A   Mostly Cloudy
6:50 PM 71.6 °F - 71.6 °F 100% 29.90 in 6.0 mi NW 11.5 mph - N/A   Mostly Cloudy
7:48 PM 71.6 °F - 71.6 °F 100% 29.91 in 5.0 mi NW 9.2 mph - N/A Rain Light Rain
8:42 PM 69.8 °F - 69.8 °F 100% 29.92 in 6.0 mi WNW 6.9 mph - N/A   Mostly Cloudy
9:48 PM 69.8 °F - 69.8 °F 100% 29.92 in 6.0 mi NW 6.9 mph - N/A   Mostly Cloudy
10:47 PM 69.8 °F - 69.8 °F 100% 29.93 in 6.0 mi NW 8.1 mph - N/A   Mostly Cloudy
11:46 PM 69.8 °F - 69.8 °F 100% 29.92 in 6.0 mi WNW 8.1 mph - N/A   Mostly Cloudy